TimeEST,TemperatureF,Dew PointF,Humidity,Sea Level PressureIn,VisibilityMPH,Wind Direction,Wind SpeedMPH,Gust SpeedMPH,PrecipitationIn,Events,Conditions,WindDirDegrees,DateUTC
12:54 AM,37.9,23.0,55,30.07,10.0,SW,5.8,-,N/A,,Clear,230,2012-11-26 05:54:00
1:54 AM,37.9,23.0,55,30.08,10.0,WSW,5.8,-,N/A,,Clear,240,2012-11-26 06:54:00
2:54 AM,36.0,23.0,59,30.09,10.0,SSW,5.8,-,N/A,,Clear,210,2012-11-26 07:54:00
3:54 AM,37.9,23.0,55,30.11,10.0,SSW,3.5,-,N/A,,Clear,200,2012-11-26 08:54:00
4:54 AM,37.9,23.0,55,30.12,10.0,Calm,Calm,-,N/A,,Clear,0,2012-11-26 09:54:00
5:54 AM,35.1,25.0,67,30.12,10.0,South,3.5,-,N/A,,Overcast,170,2012-11-26 10:54:00
6:54 AM,37.9,24.1,57,30.13,10.0,South,4.6,-,N/A,,Clear,170,2012-11-26 11:54:00
7:54 AM,37.9,24.1,57,30.14,10.0,SSE,3.5,-,N/A,,Clear,160,2012-11-26 12:54:00
8:54 AM,39.9,30.0,68,30.17,10.0,Calm,Calm,-,N/A,,Clear,0,2012-11-26 13:54:00
9:54 AM,46.0,27.0,47,30.18,10.0,Calm,Calm,-,N/A,,Clear,0,2012-11-26 14:54:00
10:54 AM,46.9,25.0,42,30.19,10.0,Calm,Calm,-,N/A,,Mostly Cloudy,0,2012-11-26 15:54:00
11:54 AM,48.0,28.0,46,30.17,10.0,Variable,3.5,-,N/A,,Overcast,0,2012-11-26 16:54:00
12:54 PM,48.9,28.0,44,30.16,10.0,Calm,Calm,-,N/A,,Overcast,0,2012-11-26 17:54:00
1:54 PM,50.0,28.0,43,30.14,10.0,Calm,Calm,-,N/A,,Overcast,0,2012-11-26 18:54:00
2:54 PM,48.0,28.9,48,30.15,10.0,South,4.6,-,0.00,Rain,Light Rain,190,2012-11-26 19:54:00
3:54 PM,46.9,30.9,54,30.14,10.0,Calm,Calm,-,0.00,,Overcast,0,2012-11-26 20:54:00
4:54 PM,46.9,33.1,59,30.14,10.0,East,3.5,-,N/A,,Overcast,90,2012-11-26 21:54:00
5:54 PM,46.0,33.1,61,30.15,10.0,Calm,Calm,-,N/A,,Overcast,0,2012-11-26 22:54:00
6:54 PM,46.0,33.1,61,30.15,10.0,NE,5.8,-,N/A,,Overcast,40,2012-11-26 23:54:00
7:54 PM,43.0,37.0,80,30.17,10.0,South,3.5,-,0.00,Rain,Light Rain,180,2012-11-27 00:54:00
8:54 PM,42.1,39.0,89,30.18,9.0,Calm,Calm,-,0.04,Rain,Light Rain,0,2012-11-27 01:54:00
9:54 PM,41.0,39.9,96,30.18,5.0,NNE,4.6,-,0.09,Rain,Rain,20,2012-11-27 02:54:00
10:54 PM,39.9,39.9,100,30.19,4.0,Calm,Calm,-,0.08,Rain,Rain,0,2012-11-27 03:54:00
11:54 PM,39.9,39.0,97,30.19,7.0,Calm,Calm,-,0.06,Rain,Light Rain,0,2012-11-27 04:54:00